WetterOnline ( https://www.wetteronline.de )

Wetter aktuell Tarifa

Aktuelles Wetter: Gibraltar (5m)

6-stündlich | Neueste Meldungen
Ortszeit Temperatur Wetter
Sa, 04.02. 19:00 14.8° C wolkenlos
Sa, 04.02. 13:00 14.6° C wolkenlos
Sa, 04.02. 7:00 13.4° C leicht bewölkt
Sa, 04.02. 1:00 14.7° C bedeckt
Fr, 03.02. 19:00 14.6° C fast wolkenlos
Fr, 03.02. 13:00 15.1° C wolkenlos
Fr, 03.02. 7:00 10.9° C wolkenlos
Fr, 03.02. 1:00 11.1° C wolkenlos
Ortszeit Temperatur Wetter
Sa, 04.02. 20:00 14.7° C wolkenlos
Sa, 04.02. 19:00 14.8° C wolkenlos
Sa, 04.02. 18:00 15.1° C wolkenlos
Sa, 04.02. 17:00 15.3° C wolkenlos
Sa, 04.02. 16:00 15.3° C wolkenlos
Sa, 04.02. 15:00 15.3° C wolkenlos
Sa, 04.02. 14:00 15.1° C wolkenlos
Ortszeit Relative Feuchte Sichtweite
Sa, 04.02. 19:00 73% 30 km
Sa, 04.02. 13:00 67% 30 km
Sa, 04.02. 7:00 79% 25 km
Sa, 04.02. 1:00 69% 35 km
Fr, 03.02. 19:00 71% 30 km
Fr, 03.02. 13:00 65% 30 km
Fr, 03.02. 7:00 77% 21 km
Fr, 03.02. 1:00 80% 25 km
Ortszeit Relative Feuchte Sichtweite
Sa, 04.02. 20:00 75% 27 km
Sa, 04.02. 19:00 73% 30 km
Sa, 04.02. 18:00 69% 35 km
Sa, 04.02. 17:00 66% 40 km
Sa, 04.02. 16:00 63% 35 km
Sa, 04.02. 15:00 62% 45 km
Sa, 04.02. 14:00 64% 35 km
Ortszeit Niederschlagsmenge Niederschlagsart
Sa, 04.02. 19:00 0.0 l/m2 in 12 Std. -
Sa, 04.02. 13:00 0.0 l/m2 in 6 Std. -
Sa, 04.02. 7:00 0.0 l/m2 in 12 Std. -
Sa, 04.02. 1:00 0.0 l/m2 in 6 Std. -
Fr, 03.02. 19:00 0.0 l/m2 in 12 Std. -
Fr, 03.02. 13:00 0.0 l/m2 in 6 Std. -
Fr, 03.02. 7:00 0.0 l/m2 in 12 Std. -
Fr, 03.02. 1:00 0.0 l/m2 in 6 Std. -
Ortszeit Niederschlagsmenge Niederschlagsart
Sa, 04.02. 20:00 0.0 l/m2 in 1 Std. -
Sa, 04.02. 19:00 0.0 l/m2 in 1 Std. -
Sa, 04.02. 18:00 0.0 l/m2 in 1 Std. -
Sa, 04.02. 17:00 0.0 l/m2 in 1 Std. -
Sa, 04.02. 16:00 0.0 l/m2 in 1 Std. -
Sa, 04.02. 15:00 0.0 l/m2 in 1 Std. -
Sa, 04.02. 14:00 0.0 l/m2 in 1 Std. -
Ortszeit Stärke Spitze Richtung
km/h Bft. km/h Grad Sektor
Sa, 04.02. 19:00 20 4 - 120° SO
Sa, 04.02. 13:00 28 4 - 70° O
Sa, 04.02. 7:00 33 5 - 70° O
Sa, 04.02. 1:00 32 5 - 80° O
Fr, 03.02. 19:00 22 4 - 80° O
Fr, 03.02. 13:00 28 4 - 80° O
Fr, 03.02. 7:00 18 3 - 30° NO
Fr, 03.02. 1:00 13 3 - 20° N
Ortszeit Stärke Spitze Richtung
km/h Bft. km/h Grad Sektor
Sa, 04.02. 20:00 18 3 29 100° O
Sa, 04.02. 19:00 20 4 31 120° SO
Sa, 04.02. 18:00 22 4 33 120° SO
Sa, 04.02. 17:00 26 4 37 120° SO
Sa, 04.02. 16:00 32 5 36 100° O
Sa, 04.02. 15:00 30 5 37 80° O
Sa, 04.02. 14:00 29 5 36 70° O
Ortszeit Untergrenze Bedeckung Gattung
total tief tief mittel hoch
Sa, 04.02. 19:00 - 0/8 0/8 - - -
Sa, 04.02. 13:00 - 0/8 0/8 - - -
Sa, 04.02. 7:00 570 m 4/8 4/8 - - -
Sa, 04.02. 1:00 570 m 8/8 8/8 - - -
Fr, 03.02. 19:00 720 m 1/8 1/8 - - -
Fr, 03.02. 13:00 - 0/8 0/8 - - -
Fr, 03.02. 7:00 - 0/8 0/8 - - -
Fr, 03.02. 1:00 - 0/8 0/8 - - -
Ortszeit Bedeckungsgrad in Achtel und Wolkenuntergrenze
Sa, 04.02. 20:00 keine Wolken
Sa, 04.02. 19:00 keine Wolken
Sa, 04.02. 18:00 keine Wolken
Sa, 04.02. 17:00 keine Wolken
Sa, 04.02. 16:00 keine Wolken
Sa, 04.02. 15:00 keine Wolken
Sa, 04.02. 14:00 keine Wolken
Ortszeit Luftdruck NN (hPa) Tendenz (hPa in 3 Std.)
Sa, 04.02. 19:00 1029 - 0,1
Sa, 04.02. 13:00 1031 + 0,1
Sa, 04.02. 7:00 1030 - 0,5
Sa, 04.02. 1:00 1031 0,0
Fr, 03.02. 19:00 1030 + 0,2
Fr, 03.02. 13:00 1032 + 0,8
Fr, 03.02. 7:00 1029 + 0,1
Fr, 03.02. 1:00 1030 + 0,1
Ortszeit Luftdruck NN (hPa) Tendenz (hPa in 3 Std.)
Sa, 04.02. 20:00 1030 + 0,8
Sa, 04.02. 19:00 1029 - 0,1
Sa, 04.02. 18:00 1029 - 0,6
Sa, 04.02. 17:00 1029 - 1,3
Sa, 04.02. 16:00 1029 - 1,7
Sa, 04.02. 15:00 1030 - 1,5
Sa, 04.02. 14:00 1030 - 0,9
Ortszeit Schneehöhe (cm)
Sa, 04.02. 19:00 -
Sa, 04.02. 13:00 -
Sa, 04.02. 7:00 -
Sa, 04.02. 1:00 -
Fr, 03.02. 19:00 -
Fr, 03.02. 13:00 -
Fr, 03.02. 7:00 -
Fr, 03.02. 1:00 -
Ortszeit Schneehöhe (cm)
Sa, 04.02. 20:00 -
Sa, 04.02. 19:00 -
Sa, 04.02. 18:00 -
Sa, 04.02. 17:00 -
Sa, 04.02. 16:00 -
Sa, 04.02. 15:00 -
Sa, 04.02. 14:00 -
Link zu dieser Seite / Seite empfehlen

Das Wetter in ...